Location: ?????????
(54.7630°N, 39.4991°E)
Time: 09:46:24
(UTC+00:00)

Cosmos 1908 Rocket - Pass Details

Date: 14 April 2026
Orbit: 599 x 625 km, 82.5° (Epoch: 19 May)

Event Time Altitude Azimuth Distance (km) Brightness Sun altitude
Exits shadow 18:51:57 41° 145° (SE) 894 3.8 -18.3°
Maximum altitude 18:53:06 54° 96° (E) 747 3.7 -18.4°
Drops below altitude 10° 18:57:20 10° 19° (NNE) 1,966 6.5 -18.8°
Sets 18:59:35 0° 15° (NNE) 2,871 7.5 -19.0°
